Location: Maiden
(35.5760°N, 81.2120°W)
Time: 10:57:23
(UTC-04:00)

Courier 1B Rocket - Visible Passes

Search period start: 04 August 2020 00:00
Search period end: 14 August 2020 00:00
Orbit: 920 x 1202 km, 28.3° (Epoch: 04 August)

Date Brightness Start Highest point End Pass type
(mag) Time Alt. Az. Time Alt. Az. Time Alt. Az.
04 Aug 6.8 04:42:08 14° S 04:44:16 16° SSE 04:48:13 10° ESE visible
05 Aug 6.3 05:31:13 13° SSW 05:36:02 29° SSE 05:41:59 10° ESE visible
06 Aug 6.4 04:33:56 20° S 04:35:13 22° SSE 04:40:14 10° ESE visible
07 Aug 7.1 03:36:38 13° SE 03:36:38 13° SE 03:38:03 10° ESE visible
07 Aug 6.0 05:23:00 18° SW 05:27:05 35° SSE 05:33:19 10° ESE visible
08 Aug 6.0 04:25:41 27° SSE 04:26:13 28° SSE 04:31:49 10° ESE visible
09 Aug 6.9 03:28:24 16° ESE 03:28:24 16° ESE 03:30:10 10° ESE visible
09 Aug 5.7 05:14:45 23° SW 05:18:10 40° S 05:24:32 10° ESE visible
10 Aug 5.8 04:17:27 34° SSE 04:17:27 34° SSE 04:23:12 10° ESE visible
10 Aug 5.6 06:04:04 10° WSW 06:10:15 46° S 06:16:54 10° ESE visible
11 Aug 6.9 03:20:10 16° ESE 03:20:10 16° ESE 03:21:49 10° ESE visible
11 Aug 5.5 05:06:32 29° SW 05:09:19 44° S 05:15:41 10° ESE visible
12 Aug 5.7 04:09:17 37° SSE 04:09:17 37° SSE 04:14:29 10° ESE visible
12 Aug 5.5 05:55:38 11° WSW 06:01:25 44° S 06:07:54 10° ESE visible
13 Aug 7.0 03:12:03 15° ESE 03:12:03 15° ESE 03:13:15 10° ESE visible
13 Aug 5.4 04:58:25 34° SW 05:00:30 45° S 05:06:48 10° ESE visible
